This is the latest recevied weather packets stored in our database for station/object VE6HFD-WX. If no packets are shown the sender has not sent any weather packets the latest 10 day(s).
| Time | Temp. | Humidity | Pressure | Rain* | Wind** | Luminosity | Snow |
|---|---|---|---|---|---|---|---|
| 1777896237 | -1.11° C | 83% | 1014.1 hPa | 0 mm | - | - | - |
| 1777895937 | -1.11° C | 83% | 1014 hPa | 0 mm | - | - | - |
| 1777895637 | -1.67° C | 83% | 1014 hPa | 0 mm | - | - | - |
| 1777895307 | -1.67° C | 83% | 1014 hPa | 0 mm | - | - | - |
| 1777895007 | -1.67° C | 82% | 1014 hPa | 0 mm | - | - | - |
| 1777894708 | -1.67° C | 83% | 1014.1 hPa | 0 mm | - | - | - |
| 1777894377 | -1.67° C | 82% | 1014 hPa | 0 mm | - | - | - |
| 1777894078 | -1.11° C | 81% | 1014 hPa | 0 mm | - | - | - |
| 1777893747 | -1.11° C | 80% | 1014 hPa | 0 mm | - | - | - |
| 1777893447 | -0.56° C | 79% | 1014 hPa | 0 mm | - | - | - |
| 1777893117 | -0.56° C | 79% | 1013.9 hPa | 0 mm | - | - | - |
| 1777892818 | 0° C | 78% | 1013.8 hPa | 0 mm | - | - | - |
| 1777892518 | 0° C | 77% | 1013.8 hPa | 0 mm | - | - | - |
| 1777892188 | 0° C | 77% | 1013.8 hPa | 0 mm | - | - | - |
| 1777891887 | 0.56° C | 76% | 1013.8 hPa | 0 mm | - | - | - |
| 1777891587 | 0.56° C | 75% | 1013.9 hPa | 0 mm | - | - | - |
| 1777891258 | 1.11° C | 75% | 1013.8 hPa | 0 mm | - | - | - |
| 1777890927 | 1.11° C | 74% | 1013.7 hPa | 0 mm | - | - | - |
| 1777890628 | 1.11° C | 74% | 1013.7 hPa | 0 mm | - | - | - |
| 1777890298 | 1.67° C | 74% | 1013.8 hPa | 0 mm | - | - | - |
| 1777889998 | 1.67° C | 74% | 1013.7 hPa | 0 mm | - | - | - |
| 1777889668 | 1.67° C | 73% | 1013.7 hPa | 0 mm | - | - | - |
| 1777889338 | 2.22° C | 72% | 1013.6 hPa | 0 mm | - | - | - |
| 1777889008 | 2.22° C | 73% | 1013.6 hPa | 0 mm | - | - | - |
| 1777888707 | 2.22° C | 73% | 1013.4 hPa | 0 mm | - | - | - |
* Rain latest hour (hover to see other rain measurements)
** Current wind speed in m/s (hover to see current wind gust speed)